Content
SEND FEEDBACK

Daily
Averages
Monthly
Summary
United States of America

ANN ARBOR, MICHIGAN


Home > North America > United States > Michigan
Elevation: 231 meters     Latitude: 42 17N     Longitude: 083 43W

WEATHER
 
SELECT A DAY
Number of Records: 208,871;   Date Range: 1/1/95 - 12/18/14
 
SHARE

PRINT THIS DATA

[ ← Previous Day ]
WEATHER ALMANAC - 31 MARCH, 2013
[ Next Day → ]
[ °F ]   °C
Weather ElementAverageHighLow
Temperature7.5 °C15 °C (3:53 pm)-0.6 °C (1:53 am)
Dewpoint1.4 °C6.1 °C (12:53 pm)-2.8 °C (1:53 am)
Humidity69 %89 % (9:53 am)32 % (5:53 pm)
Barometer1006.4 hPa1012.5 hPa (1:53 am)1003.4 hPa (5:53 pm)
Wind Speed14.8 km/h31.5 km/h (5:53 pm)
Wind Gust44.4 km/h (11:53 pm)
Weather ElementAverage
Visibility11.9 km
Wind DirectionSSW (204.2 °)

Weather ElementTotal
Precipitation2.29 mm
Heating Degree Days11.2 (Base 18.3)
Averaged from 33 records on 31 March, 2013
WEATHER CONDITIONS BREAKOUT
WIND DIRECTION BREAKOUT
WEATHER BY HOUR - 31 MARCH, 2013
[ °F ]   °C
Local TimeTemperatureDewpointHumidityBarometerVisibilityWind DirectionWind SpeedGust SpeedPrecipitationEventsConditions
1:53 AM-0.6 °C-2.8 °C85 %1012.5 hPa12.9 kmCalmClear
2:53 AM-0.6 °C-2.8 °C85 %1011.2 hPa11.3 kmCalmClear
3:53 AM0 °C-2.2 °C85 %1010.2 hPa11.3 kmCalmMostly Cloudy
4:53 AM0 °C-1.7 °C88 %1009.5 hPa12.9 kmCalmMostly Cloudy
5:53 AM2.2 °C-1.1 °C79 %1008.1 hPa12.9 kmCalmOvercast
6:53 AM3.3 °C-0.6 °C76 %1007.8 hPa14.5 kmSW (220°)5.6 km/hOvercast
7:53 AM4.4 °C-0.6 °C70 %1007.8 hPa12.9 kmSSW (200°)9.3 km/hOvercast
8:53 AM4.4 °C0.6 °C77 %1007.5 hPa8 kmCalm0 mmRainLight Rain
9:41 AM4 °C2 °C87 %1006.8 hPa4 kmSW (220°)5.6 km/h0.51 mmRainLight Rain
9:53 AM4.4 °C2.8 °C89 %1006.8 hPa3.2 kmSW (220°)5.6 km/h1.02 mmRainLight Rain
10:16 AM5 °C3 °C87 %1006.1 hPa4.8 kmSW (230°)7.4 km/h0.25 mmRainLight Rain
10:34 AM6 °C4 °C87 %1006.1 hPa4.8 kmSW (230°)11.1 km/h0.25 mmOvercast
10:53 AM6.7 °C4.4 °C85 %1006.4 hPa4.8 kmWSW (240°)9.3 km/h0.25 mmOvercast
11:03 AM7 °C5 °C87 %1005.8 hPa4.8 kmWSW (240°)13 km/hOvercast
11:28 AM7 °C5 °C87 %1006.1 hPa4.8 kmSW (230°)11.1 km/hOvercast
11:53 AM7.8 °C5.6 °C86 %1006.4 hPa6.4 kmWSW (240°)13 km/hOvercast
12:25 PM9 °C6 °C82 %1005.8 hPa9.7 kmWest (270°)20.4 km/hHaze
12:39 PM9 °C6 °C82 %1005.8 hPa11.3 kmWest (260°)22.2 km/hOvercast
12:53 PM10.6 °C6.1 °C74 %1005.8 hPa12.9 kmNorthMostly Cloudy
1:00 PM11 °C6 °C71 %1005.4 hPa14.5 kmWest (270°)27.8 km/h38.9 km/hOvercast
1:35 PM12 °C4 °C58 %1005.1 hPa16.1 kmWest (270°)20.4 km/hMostly Cloudy
1:53 PM12.8 °C3.3 °C53 %1005.1 hPa16.1 kmWSW (250°)25.9 km/h40.7 km/hMostly Cloudy
2:53 PM14.4 °C1.1 °C41 %1004.7 hPa16.1 kmWest (260°)27.8 km/h35.2 km/hPartly Cloudy
3:53 PM15 °C-0.6 °C35 %1004.1 hPa16.1 kmWest (260°)24.1 km/h38.9 km/hPartly Cloudy
4:53 PM14.4 °C-1.1 °C35 %1003.7 hPa16.1 kmWNW (290°)25.9 km/h38.9 km/hPartly Cloudy
5:53 PM14.4 °C-2.2 °C32 %1003.4 hPa16.1 kmWest (280°)31.5 km/h42.6 km/hPartly Cloudy
6:53 PM13.3 °C-1.7 °C36 %1003.7 hPa16.1 kmWest (270°)29.6 km/hOvercast
7:53 PM11.1 °C-1.1 °C43 %1004.1 hPa16.1 kmWest (280°)27.8 km/h33.3 km/hMostly Cloudy
8:53 PM9.4 °C-1.1 °C48 %1004.1 hPa16.1 kmWest (270°)14.8 km/hPartly Cloudy
9:53 PM8.9 °C1.7 °C61 %1004.7 hPa16.1 kmWNW (300°)11.1 km/hOvercast
10:49 PM8 °C1 °C62 %1005.1 hPa16.1 kmNW (320°)18.5 km/h38.9 km/hOvercast
10:53 PM7.8 °C0.6 °C61 %1005.4 hPa16.1 kmNNW (330°)22.2 km/hOvercast
11:53 PM6.1 °C-0.6 °C62 %1006.1 hPa16.1 kmWNW (290°)29.6 km/h44.4 km/hMostly Cloudy
Hourly data recorded from KARB, located 0 kilometers away from Ann Arbor, Michigan







STORIES FROM OUR PARTNERS